Theta_e
306 306 305 304 305 306 308 309 310 311 311 312 311 310 309 309 311 317 322 321 320 317 314 318 320 318 318 317 316 318 314 314 317 319 323 321 321 325 345 347 346 344 343 338 335
307 306 306 305 305 307 308 309 310 311 312 312 311 310 310 310 314 320 322 323 315 315 315 318 318 317 315 316 315 316 315 317 320 319 318 318 319 322 346 349 345 340 339 341 340
308 307 306 305 306 307 309 310 314 315 313 313 310 310 310 313 325 326 323 319 315 314 314 317 319 317 317 316 316 317 315 318 321 321 318 318 319 321 338 345 346 345 343 345 343
309 309 307 306 306 308 309 313 316 313 312 310 310 311 311 318 329 323 317 317 314 313 316 318 318 317 317 316 317 319 319 320 321 318 318 318 320 320 331 338 339 343 342 336 344
311 311 309 307 306 308 309 314 316 310 308 309 311 312 316 325 325 317 317 315 313 315 321 320 317 317 317 317 318 321 322 319 321 319 320 319 318 319 325 338 333 333 331 338 345
313 312 311 308 306 308 310 314 316 312 310 312 312 312 319 326 323 320 318 316 321 319 321 319 317 319 320 319 318 319 320 319 320 319 320 320 320 320 319 337 337 332 332 340 344
311 311 311 309 306 308 312 315 316 316 314 311 311 317 324 326 323 321 320 320 321 321 319 321 321 318 318 319 319 320 319 318 318 319 320 319 319 319 318 324 328 330 340 346 344
307 309 310 309 306 310 314 315 317 318 316 316 318 323 328 323 323 322 322 320 319 319 320 321 320 318 320 319 320 322 319 316 316 318 319 318 315 318 319 321 321 330 346 343 340
308 306 309 308 307 312 313 315 318 318 318 318 323 326 331 321 321 323 322 321 320 320 320 320 319 318 319 319 316 318 316 317 320 318 319 319 320 322 320 322 331 346 343 341 338
313 310 307 307 308 313 315 316 318 317 325 321 324 326 327 323 323 323 322 321 320 321 320 319 317 318 317 317 317 323 322 321 319 321 323 323 321 322 322 324 344 342 339 338 336
314 311 307 306 310 313 316 326 322 325 324 326 326 326 323 321 322 322 321 321 322 321 320 320 318 318 322 321 320 321 321 321 322 323 323 323 323 321 324 341 341 340 337 335 332
312 315 312 310 312 314 315 322 321 321 321 325 324 322 321 321 322 320 321 320 321 321 320 322 320 321 321 321 321 321 321 320 324 321 320 322 321 320 329 339 339 337 334 332 329
311 314 316 314 314 317 319 323 320 320 321 325 323 321 320 321 321 321 320 321 321 320 321 319 322 322 321 320 322 323 323 323 322 321 318 319 318 319 337 338 337 333 330 329 328
313 312 316 316 318 320 322 321 320 322 325 328 320 321 320 321 322 321 322 322 322 322 321 322 321 321 320 321 322 322 320 321 322 321 318 318 317 319 336 338 335 332 329 327 326
314 313 314 316 319 321 320 319 320 322 335 322 321 322 321 321 321 320 321 322 321 324 321 321 323 322 322 323 323 324 320 320 320 318 317 317 316 317 334 337 334 332 329 326 324
315 314 312 318 321 323 322 320 321 325 330 323 321 321 320 320 321 321 322 321 321 322 321 321 323 323 322 321 321 320 321 321 319 316 317 319 318 319 331 336 333 330 328 327 325
315 315 313 315 321 322 321 320 324 326 326 323 322 322 319 320 321 322 322 321 321 322 325 323 322 322 322 323 321 321 322 320 319 320 321 322 323 332 332 332 331 329 327 325 324
316 316 318 315 320 322 321 323 329 328 327 324 322 322 321 320 321 323 323 322 324 325 323 325 324 324 323 322 322 322 321 318 322 324 326 323 337 333 330 330 328 327 325 324 322
315 316 319 324 323 322 322 326 327 328 323 323 323 322 322 322 323 323 323 323 325 324 326 324 325 323 323 322 321 322 319 320 323 323 322 320 332 329 329 331 329 328 326 324 322
315 317 322 322 322 322 324 325 326 326 323 323 322 322 323 322 322 322 322 325 324 322 321 323 322 322 322 321 321 319 320 321 320 325 329 324 329 333 330 326 330 330 327 325 323
317 325 324 322 320 324 325 324 326 321 321 324 325 327 327 327 326 325 325 323 323 322 320 321 322 323 321 322 323 319 320 323 320 323 324 325 324 330 328 326 324 323 328 325 323
316 325 321 320 322 323 325 326 320 323 321 320 322 324 325 326 327 325 325 323 321 321 321 324 324 327 326 323 322 322 322 322 321 322 324 326 326 324 324 323 322 320 321 326 323
316 321 320 319 320 322 325 327 324 323 322 322 322 322 324 324 324 325 325 321 320 323 324 322 325 326 326 324 325 326 326 325 322 321 323 324 325 323 324 322 321 320 320 327 325
316 326 324 323 320 323 325 325 324 321 321 322 323 322 323 323 323 324 323 322 320 320 325 321 322 323 324 324 323 324 323 324 324 324 323 323 322 320 323 320 319 319 317 318 325
319 326 325 323 324 323 323 323 324 324 321 321 322 322 323 323 323 323 323 322 321 327 321 320 322 324 323 324 323 323 322 320 320 320 321 319 319 317 319 319 320 318 318 319 323
319 325 321 320 324 322 320 323 323 324 324 324 325 324 324 324 325 327 326 326 328 320 321 322 323 325 326 324 323 324 323 322 319 318 317 316 316 315 316 318 318 318 319 326 327
322 322 322 320 321 324 323 326 325 323 323 322 321 322 325 324 322 321 322 322 323 325 326 327 325 325 326 325 324 324 322 321 319 318 316 315 314 317 317 320 321 323 324 326 325
Wind_Speed
17 15 14 13 12 11 11 12 13 13 12 11 10 9 10 11 11 8 5 4 4 6 7 7 11 13 17 6 7 4 4 6 7 12 6 8 9 13 13 14 10 7 6 8 26
18 15 14 12 11 11 12 14 15 13 11 9 8 8 8 10 9 10 11 10 7 7 4 9 7 12 3 7 5 4 3 7 3 5 7 10 11 7 11 17 9 11 19 23 4
17 15 13 12 10 11 12 16 14 10 7 6 7 7 6 6 3 4 9 8 4 6 7 12 19 5 6 5 9 8 6 6 3 9 9 10 10 7 13 5 13 24 20 10 10
17 15 12 11 10 10 13 15 11 8 6 5 5 4 3 2 4 3 5 4 2 5 3 10 7 4 4 6 10 5 8 4 5 7 7 7 4 8 8 7 11 17 22 20 8
18 15 12 10 9 10 12 13 9 8 5 4 2 2 1 2 6 2 5 4 5 5 8 7 7 5 6 6 8 4 3 7 5 6 3 4 7 7 6 11 10 10 11 10 3
22 16 12 9 9 9 11 11 7 6 5 3 2 1 1 4 6 5 6 5 5 10 12 15 6 8 5 7 6 5 5 7 3 5 3 2 3 1 8 14 12 11 12 12 14
25 20 13 8 7 8 10 10 5 6 4 3 3 3 4 9 8 4 6 8 9 11 6 12 8 8 10 9 10 6 6 9 7 5 2 6 6 9 11 14 15 14 21 18 19
28 22 14 9 7 7 10 9 4 4 3 2 2 1 5 4 2 5 9 4 2 8 8 10 11 6 3 6 8 2 4 5 12 8 6 8 8 15 12 10 9 16 18 18 23
31 24 16 10 7 8 10 7 5 4 5 5 2 3 6 3 5 8 7 6 4 5 6 5 4 5 8 4 5 4 8 7 6 9 6 5 4 7 11 11 14 19 17 17 19
32 26 18 11 9 10 9 6 7 7 4 4 8 5 7 3 4 6 5 1 6 3 4 4 3 2 5 2 4 5 4 8 9 5 5 1 6 6 4 11 17 18 16 17 18
31 28 20 14 11 11 9 5 3 2 4 7 6 5 6 11 6 7 4 8 4 4 6 7 3 5 6 3 6 5 6 7 3 6 5 4 4 11 0 16 16 16 16 15 16
31 27 22 17 14 14 11 3 7 9 7 14 19 6 13 11 6 7 9 4 6 8 9 0 1 3 4 3 2 5 6 8 4 10 7 5 7 9 8 12 15 17 15 14 13
32 26 23 19 18 17 7 10 12 13 3 10 14 6 4 9 6 9 8 6 8 8 5 7 5 4 3 5 6 4 7 7 4 7 8 5 8 8 13 19 19 18 16 15 13
33 28 22 26 10 12 9 8 14 10 2 6 8 7 7 8 1 14 8 3 4 3 7 2 6 5 3 3 4 4 9 10 10 8 2 6 6 4 15 16 18 16 14 11 10
35 32 20 21 15 9 15 13 10 3 2 10 8 14 8 5 9 6 6 4 7 9 4 7 2 3 1 7 7 3 8 7 5 7 5 11 2 6 18 13 14 15 13 12 9
36 35 21 10 15 16 17 14 8 2 6 9 7 7 5 7 5 6 5 4 5 5 8 7 2 3 2 6 3 5 4 7 6 3 2 20 8 5 6 16 12 14 12 11 9
37 35 21 14 6 14 14 9 1 3 5 7 13 9 9 8 8 7 6 6 5 3 5 5 9 4 8 1 6 4 5 4 5 3 7 10 3 4 11 15 18 14 11 8 8
38 32 15 16 12 14 10 3 4 9 11 7 1 5 4 9 8 8 2 6 4 3 2 3 4 3 2 4 2 4 2 4 3 3 6 9 4 3 15 16 15 14 11 9 8
37 24 14 17 12 6 3 2 4 4 7 9 6 1 5 6 4 3 5 6 5 7 5 4 2 1 5 6 5 3 3 3 0 4 2 3 4 5 13 13 14 14 12 9 9
28 12 12 14 10 3 1 5 5 13 5 8 5 5 4 8 7 6 4 4 5 6 6 4 4 3 2 3 6 6 2 4 3 2 3 3 1 5 8 7 14 12 12 10 9
10 4 3 5 9 2 3 6 6 9 6 5 6 7 10 5 7 2 4 10 7 7 6 3 2 6 8 2 3 4 1 2 2 2 2 1 5 5 8 6 7 5 14 15 14
8 3 8 5 1 3 7 7 5 2 6 2 1 5 4 7 7 5 5 5 7 7 4 2 3 2 6 13 5 5 3 3 4 5 2 2 5 6 9 9 8 8 6 14 12
4 4 16 8 3 4 7 13 3 3 2 2 1 3 7 5 4 5 3 6 5 5 3 3 3 2 7 4 5 3 4 4 2 3 3 2 5 5 5 5 5 5 4 11 10
3 4 4 3 4 5 4 6 2 5 2 3 6 7 6 2 3 2 3 4 5 5 9 6 2 3 4 6 4 5 9 6 6 3 5 7 8 6 4 2 7 6 5 6 11
3 4 5 3 4 6 3 6 8 3 5 6 1 5 5 3 5 6 8 7 6 9 4 5 3 3 6 8 11 11 11 12 8 7 5 6 7 7 4 7 4 4 7 8 10
3 3 3 5 6 4 1 5 7 4 3 1 3 7 5 3 2 5 6 6 4 2 7 5 4 4 4 8 11 15 15 15 5 6 6 8 7 7 5 8 8 8 9 11 11
4 8 0 5 6 2 5 7 2 5 6 3 5 6 7 9 8 6 3 3 3 2 0 6 3 1 4 6 10 9 7 6 2 3 4 4 6 6 9 13 12 12 11 8 6
Wind_Direction
341 335 334 335 333 327 326 326 321 316 313 310 306 302 296 302 309 299 259 251 228 279 296 284 255 241 252 266 273 293 27 299 293 28 332 11 56 51 77 70 55 36 54 337 151
342 337 335 335 332 329 329 328 322 313 307 302 302 301 309 326 316 256 248 259 265 262 268 294 297 230 234 254 274 139 146 253 294 50 17 358 43 18 88 91 72 58 10 354 3
344 343 337 331 331 330 334 333 330 326 315 306 301 304 336 339 311 210 216 242 264 236 246 300 288 325 230 265 260 247 217 254 23 51 31 346 18 358 113 53 142 130 116 342 285
342 341 336 328 330 331 340 342 339 333 321 311 309 323 335 24 49 179 193 198 222 203 280 288 293 297 273 254 268 264 276 322 332 52 22 345 1 336 77 165 168 146 154 177 210
342 335 332 327 327 332 342 344 341 339 331 323 334 348 12 220 253 172 148 136 141 159 236 247 274 255 259 272 305 180 326 319 30 27 328 6 347 309 98 160 162 151 146 177 88
357 343 332 326 328 331 339 339 338 348 355 2 17 1 341 289 150 94 121 161 194 230 260 260 267 302 288 315 325 10 3 338 24 285 303 165 291 53 280 172 162 160 173 65 87
0 354 339 329 333 332 334 334 321 346 3 16 13 35 274 250 143 126 210 250 262 257 291 319 11 11 331 323 327 14 6 319 284 241 165 82 322 268 265 153 156 176 83 74 78
4 359 347 336 339 337 334 330 307 330 320 313 334 85 255 179 237 184 241 194 295 281 305 346 349 309 275 302 335 274 272 255 266 196 181 106 274 261 224 112 96 62 64 49 49
7 3 356 343 339 339 333 317 294 307 300 306 328 206 272 158 203 223 240 242 186 250 259 300 287 243 306 270 331 283 242 233 311 132 146 148 275 1 113 114 87 79 63 49 41
8 5 359 348 337 342 342 322 308 301 302 300 270 301 271 188 133 150 252 5 226 219 259 203 222 241 314 53 251 333 292 309 148 178 112 33 305 322 154 101 96 87 71 57 45
4 6 0 347 336 338 350 338 338 321 236 229 275 224 121 88 151 222 199 234 260 238 247 225 139 224 230 60 5 326 343 338 83 142 116 131 275 289 192 103 93 84 73 61 48
0 359 359 349 334 323 317 271 334 287 303 237 259 282 116 187 183 150 205 231 202 231 247 296 247 43 23 95 344 345 324 305 7 20 56 16 291 284 75 98 92 88 77 67 46
359 349 348 341 323 310 267 294 313 303 290 289 212 221 195 212 204 160 194 247 250 273 253 203 155 127 64 336 318 4 36 8 17 4 347 352 292 258 100 101 94 83 80 68 60
354 348 335 336 321 317 284 328 341 3 319 241 206 202 183 219 225 151 206 285 296 297 343 91 116 54 9 300 16 74 12 9 358 12 287 60 287 332 133 113 98 93 86 79 70
347 348 326 328 298 310 355 327 342 333 311 138 175 148 168 211 135 177 83 309 275 323 88 248 54 158 266 64 41 318 31 341 310 296 328 276 285 282 135 112 101 99 101 102 87
340 341 326 309 313 282 320 330 306 9 249 185 135 180 212 227 164 140 170 200 273 310 315 264 167 137 91 39 345 282 308 297 275 193 292 261 179 308 172 131 110 104 105 112 118
334 335 315 276 257 331 341 321 4 228 149 150 162 182 200 199 224 161 192 191 208 183 272 310 235 123 89 349 17 45 24 342 348 7 234 330 307 152 89 115 118 116 112 109 109
331 333 316 266 271 304 333 356 249 268 304 116 122 148 212 216 196 163 113 311 38 303 89 336 343 3 135 84 60 324 174 151 263 324 309 329 101 154 104 109 113 122 122 124 129
332 331 293 276 252 269 43 254 239 337 3 357 151 278 208 253 62 46 156 249 53 45 98 23 100 63 88 69 85 338 343 193 250 277 326 230 68 79 125 130 130 136 141 151 157
333 311 268 247 192 147 119 258 289 304 7 354 332 185 235 239 162 158 238 94 100 83 72 21 338 340 164 166 240 171 216 16 350 222 280 315 354 180 151 132 154 152 156 165 175
323 306 268 173 150 105 220 241 296 64 22 13 358 332 339 9 17 130 71 48 49 111 97 70 107 298 357 229 299 39 351 21 131 122 181 298 292 122 125 131 133 161 171 175 182
326 294 154 188 131 220 236 249 278 107 117 325 34 317 345 354 8 23 33 77 39 56 46 55 108 313 276 288 357 74 38 108 122 287 325 166 268 145 157 168 177 219 207 186 182
310 260 288 214 231 263 293 236 169 38 3 33 244 306 35 19 31 356 11 114 90 79 92 338 5 323 306 19 47 74 319 327 203 133 225 164 262 250 121 82 351 302 84 177 175
295 301 300 162 224 257 323 320 235 96 6 355 344 355 15 10 321 314 325 145 158 112 130 91 130 170 217 268 305 317 309 248 222 195 231 225 256 291 258 40 256 246 145 135 183
234 259 332 311 347 356 3 334 317 143 191 117 282 265 236 224 291 285 233 136 169 149 100 114 182 254 277 304 306 300 287 287 277 258 251 252 270 273 259 223 214 116 73 58 53
268 339 341 280 280 317 313 275 279 275 78 60 321 260 336 233 3 23 32 45 51 259 143 166 207 223 276 306 303 291 295 284 258 286 316 327 329 282 326 75 67 63 51 75 71
289 338 39 284 310 255 244 234 72 57 6 301 336 358 359 36 15 352 14 2 16 45 217 150 163 54 259 308 315 307 258 322 72 44 20 340 272 337 44 56 48 61 62 79 86